Location: Sevilla
(37.3933°N, 5.9839°W)
Time: 12:44:02
(UTC+02:00)

S-56A Canister/Altair - Pass Details

Date: 26 June 2024
Orbit: 638 x 2488 km, 38.9° (Epoch: 14 July)

Event Time Altitude Azimuth Distance (km) Brightness Sun altitude
Rises 23:06:18 0° 260° (W) 3,855 11.7 -13.1°
Reaches altitude 10° 23:08:36 10° 260° (W) 3,094 11.1 -13.4°
Maximum altitude 23:16:31 87° 350° (N) 1,573 9.0 -14.6°
Drops below altitude 10° 23:28:44 10° 81° (E) 4,607 11.2 -16.2°
Sets 23:32:54 0° 82° (E) 5,822 11.7 -16.8°
